Weather History for KDPA - September, 2012

Change the Weather History Date:

Wednesday, September 5, 2012

  Actual Average Record
Temperature  
Mean Temperature 75 °F 68 °F  
Max Temperature 88 °F 79 °F 92 °F (1999)
Min Temperature 61 °F 57 °F 42 °F (1997)
Degree Days  
Heating Degree Days 0 1  
Month to date heating degree days 0 5  
Since 1 July heating degree days 6 14  
Cooling Degree Days 10 4  
Month to date cooling degree days 55 24  
Year to date cooling degree days 1067 748  
Growing Degree Days 24 (Base 50)    
Moisture  
Dew Point 61 °F    
Average Humidity 70    
Maximum Humidity 90    
Minimum Humidity 41    
Precipitation  
Precipitation 0.05 in 0.13 in 0.06 in (2014)
Month to date precipitation 0.29 0.56  
Year to date precipitation 14.56 26.19  
Sea Level Pressure  
Sea Level Pressure 29.81 in    
Wind  
Wind Speed 6 mph (SW)    
Max Wind Speed 25 mph    
Max Gust Speed 32 mph    
Visibility 9 miles    
Events Rain , Thunderstorm    
T = Trace of Precipitation, MM = Missing Value Source: NWS Daily Summary

Daily Weather History Graph

Daily Weather History Graph

Search for Another Location

Airport or City:

Trip Planner

Search our weather history database for the weather conditions in past years. The results will help you decide how hot, cold, wet, or windy it might be!

Date:

Astronomy

Sep. 05, 2012 Rise Set
Actual Time 6:23 AM CDT 7:18 PM CDT
Civil Twilight 5:54 AM CDT 7:47 PM CDT
Nautical Twilight 5:21 AM CDT 8:20 PM CDT
Astronomical Twilight 4:45 AM CDT 8:55 PM CDT
Moon 9:42 PM CDT (9/5) 11:32 AM CDT (9/5)
Length of Visible Light 13h 52m
Length of Day
12h 55m
Waning Gibbous, 76% of the Moon is Illuminated
Sep 5
Waning Gibbous
Sep 8
Last Quarter
Sep 15
New
Sep 22
First Quarter
Sep 29
Full

Hourly Weather History & Observations

Time (CDT) Temp. Heat Index Dew Point Humidity Pressure Visibility Wind Dir Wind Speed Gust Speed Precip Events Conditions
12:34 AM 64.4 °F - 59.0 °F 83% 29.84 in 4.0 mi East 16.1 mph - 0.11 in Rain Heavy Rain
12:52 AM 64.9 °F - 60.1 °F 84% 29.82 in 10.0 mi ESE 8.1 mph - 0.11 in   Partly Cloudy
1:52 AM 62.1 °F - 59.0 °F 90% 29.82 in 10.0 mi SSW 5.8 mph - N/A   Clear
2:52 AM 63.0 °F - 60.1 °F 90% 29.80 in 10.0 mi South 3.5 mph - N/A   Clear
3:52 AM 62.1 °F - 59.0 °F 90% 29.83 in 10.0 mi Calm Calm - N/A   Clear
4:52 AM 62.1 °F - 59.0 °F 90% 29.81 in 7.0 mi SE 3.5 mph - N/A   Clear
5:52 AM 64.9 °F - 61.0 °F 87% 29.91 in 8.0 mi WNW 16.1 mph 27.6 mph 0.01 in   Scattered Clouds
6:52 AM 66.0 °F - 59.0 °F 78% 29.94 in 10.0 mi NW 11.5 mph 21.9 mph N/A   Overcast
7:32 AM 64.4 °F - 59.0 °F 83% 29.93 in 4.0 mi NW 12.7 mph 23.0 mph 0.02 in Rain , Thunderstorm Heavy Rain
7:52 AM 64.9 °F - 59.0 °F 81% 29.94 in 10.0 mi Variable 5.8 mph - 0.03 in   Overcast
8:52 AM 66.9 °F - 59.0 °F 76% 29.81 in 10.0 mi WNW 9.2 mph 24.2 mph 0.02 in   Scattered Clouds
9:52 AM 70.0 °F - 62.1 °F 76% 29.77 in 10.0 mi SSE 5.8 mph - N/A   Clear
10:52 AM 73.0 °F - 63.0 °F 71% 29.77 in 10.0 mi SSE 6.9 mph - N/A   Clear
11:52 AM 77.0 °F - 62.1 °F 60% 29.77 in 10.0 mi SSE 10.4 mph - N/A   Clear
12:52 PM 81.0 °F 82.2 °F 63.0 °F 54% 29.78 in 10.0 mi SSW 8.1 mph - N/A   Clear
1:52 PM 84.0 °F 84.9 °F 63.0 °F 49% 29.77 in 10.0 mi SSW 11.5 mph - N/A   Clear
2:52 PM 84.0 °F 84.5 °F 62.1 °F 47% 29.76 in 10.0 mi SW 12.7 mph - N/A   Clear
3:52 PM 86.0 °F 86.8 °F 63.0 °F 46% 29.76 in 10.0 mi SSW 10.4 mph - N/A   Mostly Cloudy
4:52 PM 86.0 °F 85.7 °F 60.1 °F 41% 29.76 in 10.0 mi WNW 9.2 mph - N/A   Mostly Cloudy
5:52 PM 84.0 °F 84.5 °F 62.1 °F 47% 29.76 in 10.0 mi West 4.6 mph - N/A   Mostly Cloudy
6:52 PM 82.0 °F 82.4 °F 60.1 °F 47% 29.77 in 10.0 mi NNW 10.4 mph - N/A   Scattered Clouds
7:52 PM 78.1 °F - 61.0 °F 56% 29.79 in 10.0 mi NNW 3.5 mph - N/A   Mostly Cloudy
8:52 PM 77.0 °F - 62.1 °F 60% 29.81 in 10.0 mi Calm Calm - N/A   Overcast
9:52 PM 75.0 °F - 64.9 °F 71% 29.81 in 10.0 mi Calm Calm - N/A   Overcast
10:52 PM 73.9 °F - 64.9 °F 73% 29.81 in 10.0 mi Calm Calm - N/A   Mostly Cloudy
11:52 PM 72.0 °F - 64.9 °F 78% 29.82 in 10.0 mi Calm Calm - N/A   Clear